| time (UTC) | temp F | wind direction | speed MPH | gust MPH | rain 1hr in | rain 24hr in | rain mn in | humidity % | barometer mb |
| 20260505114045 | 33 | 250 | 1.0 | 3.0 | 0.00 | 0.10 | 0.10 | 98 | 1013.8 |
| 20260505113541 | 33 | 78 | 0.0 | 2.0 | 0.00 | 0.10 | 0.10 | 98 | 1013.7 |
| 20260505113038 | 33 | 232 | 1.0 | 2.0 | 0.00 | 0.10 | 0.10 | 98 | 1013.8 |
| 20260505112534 | 33 | 84 | 0.0 | 3.0 | 0.00 | 0.10 | 0.10 | 98 | 1013.9 |
| 20260505112033 | 33 | 59 | 0.0 | 1.0 | 0.00 | 0.10 | 0.10 | 97 | 1014.1 |
| 20260505111531 | 33 | 123 | 1.0 | 2.0 | 0.00 | 0.10 | 0.10 | 97 | 1013.8 |
| 20260505111028 | 33 | 78 | 1.0 | 2.0 | 0.00 | 0.10 | 0.10 | 97 | 1014.3 |
| 20260505110525 | 33 | 86 | 0.0 | 2.0 | 0.00 | 0.10 | 0.10 | 97 | 1014.2 |
| 20260505101957 | 34 | 138 | 2.0 | 3.0 | 0.00 | 0.10 | 0.10 | 97 | 1014.3 |
| 20260505101455 | 34 | 247 | 2.0 | 6.0 | 0.00 | 0.10 | 0.10 | 97 | 1014.1 |
| 20260505100951 | 34 | 250 | 2.0 | 3.0 | 0.00 | 0.10 | 0.10 | 97 | 1013.9 |
| 20260505100449 | 34 | 89 | 1.0 | 6.0 | 0.00 | 0.10 | 0.10 | 97 | 1013.8 |
| 20260505095945 | 34 | 211 | 1.0 | 6.0 | 0.00 | 0.10 | 0.10 | 97 | 1013.9 |
| 20260505095442 | 34 | 190 | 0.0 | 6.0 | 0.00 | 0.10 | 0.10 | 97 | 1014.2 |
| 20260505094938 | 34 | 248 | 3.0 | 4.0 | 0.00 | 0.10 | 0.10 | 97 | 1014.5 |
| 20260505094435 | 34 | 223 | 2.0 | 3.0 | 0.00 | 0.10 | 0.10 | 96 | 1014.5 |
| 20260505093931 | 34 | 52 | 1.0 | 2.0 | 0.05 | 0.10 | 0.10 | 96 | 1014.7 |
| 20260505093428 | 34 | 51 | 2.0 | 4.0 | 0.05 | 0.10 | 0.10 | 96 | 1014.2 |
| 20260505092925 | 34 | 81 | 2.0 | 3.0 | 0.00 | 0.09 | 0.09 | 96 | 1014.3 |
| 20260505092423 | 34 | 254 | 2.0 | 4.0 | 0.07 | 0.09 | 0.09 | 96 | 1014.5 |
| 20260505091920 | 34 | 229 | 2.0 | 4.0 | 0.07 | 0.09 | 0.09 | 96 | 1014.6 |
| 20260505091417 | 34 | 95 | 1.0 | 6.0 | 0.07 | 0.08 | 0.08 | 96 | 1014.6 |
| 20260505090915 | 34 | 203 | 2.0 | 8.0 | 0.12 | 0.08 | 0.08 | 95 | 1015.1 |
| 20260505090413 | 34 | 183 | 2.0 | 8.0 | 0.05 | 0.07 | 0.07 | 95 | 1014.7 |
| 20260505085910 | 34 | 235 | 5.0 | 7.0 | 0.00 | 0.06 | 0.06 | 95 | 1014.7 |
| 20260505085408 | 34 | 284 | 4.0 | 8.0 | 0.07 | 0.06 | 0.06 | 95 | 1015.1 |
| 20260505084906 | 34 | 153 | 1.0 | 6.0 | 0.07 | 0.06 | 0.06 | 95 | 1014.7 |
| 20260505084404 | 34 | 324 | 4.0 | 8.0 | 0.05 | 0.05 | 0.05 | 94 | 1015.0 |
| 20260505083901 | 35 | 279 | 3.0 | 6.0 | 0.05 | 0.05 | 0.05 | 94 | 1015.0 |
| 20260505083359 | 35 | 136 | 2.0 | 6.0 | 0.07 | 0.04 | 0.04 | 94 | 1015.0 |
| 20260505082855 | 35 | 320 | 2.0 | 7.0 | 0.07 | 0.04 | 0.04 | 93 | 1015.0 |
| 20260505082351 | 35 | 261 | 3.0 | 9.0 | 0.05 | 0.03 | 0.03 | 93 | 1014.9 |
| 20260505081848 | 35 | 221 | 5.0 | 8.0 | 0.05 | 0.03 | 0.03 | 92 | 1015.1 |
| 20260505081344 | 35 | 253 | 5.0 | 7.0 | 0.00 | 0.02 | 0.02 | 92 | 1015.2 |
| 20260505080841 | 35 | 190 | 4.0 | 7.0 | 0.00 | 0.02 | 0.02 | 92 | 1015.1 |
| 20260505080337 | 35 | 242 | 4.0 | 7.0 | 0.00 | 0.02 | 0.02 | 92 | 1015.4 |
| 20260505075833 | 35 | 343 | 3.0 | 7.0 | 0.00 | 0.02 | 0.02 | 92 | 1015.2 |
| 20260505075330 | 35 | 173 | 4.0 | 8.0 | 0.07 | 0.02 | 0.02 | 93 | 1015.6 |
| 20260505074827 | 35 | 208 | 4.0 | 6.0 | 0.07 | 0.02 | 0.02 | 93 | 1015.4 |
| 20260505074324 | 35 | 228 | 4.0 | 8.0 | 0.00 | 0.01 | 0.01 | 94 | 1015.8 |
| 20260505073822 | 35 | 246 | 4.0 | 6.0 | 0.00 | 0.01 | 0.01 | 94 | 1015.6 |
| 20260505073320 | 35 | 174 | 4.0 | 6.0 | 0.00 | 0.01 | 0.01 | 94 | 1015.5 |
| 20260505072816 | 35 | 226 | 4.0 | 9.0 | 0.00 | 0.01 | 0.01 | 94 | 1015.6 |
| 20260505072312 | 35 | 252 | 4.0 | 7.0 | 0.00 | 0.01 | 0.01 | 94 | 1015.5 |
| 20260505071808 | 35 | 139 | 4.0 | 9.0 | 0.00 | 0.01 | 0.01 | 94 | 1015.5 |
| 20260505071305 | 36 | 269 | 4.0 | 7.0 | 0.00 | 0.01 | 0.01 | 94 | 1015.5 |
| 20260505070803 | 36 | 241 | 4.0 | 7.0 | 0.00 | 0.01 | 0.01 | 94 | 1015.8 |
| 20260505070259 | 36 | 311 | 4.0 | 6.0 | 0.00 | 0.01 | 0.01 | 94 | 1015.5 |
| 20260505065754 | 36 | 282 | 3.0 | 6.0 | 0.05 | 0.01 | 0.01 | 93 | 1015.6 |
| 20260505065252 | 36 | 257 | 4.0 | 6.0 | 0.05 | 0.01 | 0.01 | 93 | 1015.4 |
| 20260505064749 | 36 | 304 | 2.0 | 6.0 | 0.00 | 0.00 | 0.00 | 93 | 1015.6 |
| 20260505064246 | 36 | 208 | 2.0 | 6.0 | 0.00 | 0.00 | 0.00 | 94 | 1015.6 |
| 20260505063744 | 36 | 198 | 2.0 | 4.0 | 0.00 | 0.00 | 0.00 | 94 | 1015.6 |
| 20260505063240 | 36 | 231 | 2.0 | 4.0 | 0.00 | 0.00 | 0.00 | 94 | 1015.5 |
| 20260505062736 | 36 | 227 | 3.0 | 6.0 | 0.00 | 0.00 | 0.00 | 94 | 1015.8 |
| 20260505062234 | 36 | 216 | 4.0 | 8.0 | 0.00 | 0.00 | 0.00 | 94 | 1015.6 |
| 20260505061731 | 36 | 206 | 4.0 | 7.0 | 0.00 | 0.00 | 0.00 | 94 | 1015.5 |
| 20260505061229 | 36 | 205 | 4.0 | 4.0 | 0.00 | 0.00 | 0.00 | 94 | 1015.6 |
| 20260505060726 | 36 | 204 | 5.0 | 8.0 | 0.00 | 0.00 | 0.00 | 94 | 1015.5 |
| 20260505060223 | 36 | 201 | 8.0 | 10.0 | 0.07 | 0.00 | 0.00 | 94 | 1015.6 |
| 20260505055718 | 36 | 204 | 4.0 | 6.0 | 0.07 | 0.31 | 0.31 | 94 | 1015.8 |
| 20260505055215 | 36 | 221 | 6.0 | 8.0 | 0.00 | 0.30 | 0.30 | 95 | 1015.9 |
| 20260505054712 | 36 | 234 | 5.0 | 7.0 | 0.00 | 0.30 | 0.30 | 96 | 1015.6 |
| 20260505054210 | 36 | 223 | 5.0 | 8.0 | 0.00 | 0.30 | 0.30 | 96 | 1015.9 |
| 20260505053708 | 36 | 214 | 5.0 | 8.0 | 0.05 | 0.30 | 0.30 | 96 | 1015.9 |
| 20260505053204 | 36 | 205 | 4.0 | 7.0 | 0.05 | 0.30 | 0.30 | 96 | 1015.8 |
| 20260505052701 | 36 | 214 | 5.0 | 7.0 | 0.00 | 0.29 | 0.29 | 96 | 1015.6 |
| 20260505052158 | 36 | 232 | 7.0 | 11.0 | 0.07 | 0.29 | 0.29 | 96 | 1016.2 |
| 20260505051655 | 36 | 206 | 6.0 | 9.0 | 0.07 | 0.29 | 0.29 | 96 | 1015.9 |
| 20260505051153 | 36 | 226 | 5.0 | 8.0 | 0.00 | 0.28 | 0.28 | 97 | 1015.9 |
| 20260505050650 | 36 | 207 | 6.0 | 8.0 | 0.00 | 0.28 | 0.28 | 97 | 1016.2 |
| 20260505050144 | 36 | 195 | 6.0 | 7.0 | 0.05 | 0.28 | 0.28 | 96 | 1016.3 |
| 20260505041619 | 37 | 211 | 8.0 | 11.0 | 0.00 | 0.27 | 0.27 | 95 | 1015.8 |
| 20260505041116 | 37 | 167 | 9.0 | 11.0 | 0.00 | 0.27 | 0.27 | 95 | 1015.8 |
| 20260505040613 | 37 | 183 | 4.0 | 11.0 | 0.00 | 0.27 | 0.27 | 95 | 1015.6 |
| 20260505040110 | 37 | 206 | 7.0 | 11.0 | 0.00 | 0.27 | 0.27 | 95 | 1015.9 |
| 20260505035606 | 37 | 191 | 6.0 | 9.0 | 0.00 | 0.27 | 0.27 | 95 | 1015.8 |
| 20260505035103 | 37 | 162 | 5.0 | 7.0 | 0.00 | 0.27 | 0.27 | 94 | 1015.8 |
| 20260505034559 | 37 | 158 | 4.0 | 7.0 | 0.00 | 0.27 | 0.27 | 94 | 1015.8 |
| 20260505034056 | 37 | 182 | 5.0 | 6.0 | 0.00 | 0.27 | 0.27 | 94 | 1015.6 |
| 20260505033553 | 37 | 186 | 4.0 | 6.0 | 0.00 | 0.27 | 0.27 | 94 | 1015.8 |
| 20260505033052 | 37 | 180 | 5.0 | 6.0 | 0.00 | 0.27 | 0.27 | 93 | 1015.6 |
| 20260505032549 | 37 | 186 | 8.0 | 9.0 | 0.00 | 0.27 | 0.27 | 92 | 1015.8 |
| 20260505032045 | 37 | 143 | 4.0 | 6.0 | 0.00 | 0.27 | 0.27 | 93 | 1015.8 |
| 20260505031542 | 37 | 160 | 3.0 | 7.0 | 0.00 | 0.27 | 0.27 | 93 | 1015.8 |
| 20260505031039 | 37 | 155 | 4.0 | 6.0 | 0.00 | 0.27 | 0.27 | 93 | 1015.6 |
| 20260505030536 | 37 | 122 | 4.0 | 7.0 | 0.00 | 0.27 | 0.27 | 93 | 1015.5 |
| 20260505030032 | 37 | 156 | 5.0 | 8.0 | 0.00 | 0.27 | 0.27 | 93 | 1015.5 |
| 20260505025528 | 37 | 178 | 6.0 | 7.0 | 0.00 | 0.27 | 0.27 | 92 | 1015.8 |
| 20260505025027 | 38 | 117 | 2.0 | 3.0 | 0.00 | 0.27 | 0.27 | 92 | 1015.2 |
| 20260505024523 | 38 | 154 | 6.0 | 8.0 | 0.00 | 0.27 | 0.27 | 91 | 1015.4 |
| 20260505024020 | 38 | 122 | 3.0 | 4.0 | 0.00 | 0.27 | 0.27 | 91 | 1015.2 |
| 20260505023517 | 38 | 121 | 2.0 | 6.0 | 0.00 | 0.27 | 0.27 | 91 | 1015.5 |
| 20260505023015 | 38 | 98 | 3.0 | 4.0 | 0.00 | 0.27 | 0.27 | 90 | 1015.2 |
| 20260505022513 | 38 | 155 | 5.0 | 7.0 | 0.00 | 0.27 | 0.27 | 90 | 1015.4 |
| 20260505022010 | 38 | 155 | 2.0 | 7.0 | 0.00 | 0.27 | 0.27 | 90 | 1015.2 |
| 20260505021506 | 38 | 192 | 6.0 | 7.0 | 0.00 | 0.27 | 0.27 | 90 | 1015.0 |
| 20260505021002 | 39 | 94 | 4.0 | 6.0 | 0.07 | 0.27 | 0.27 | 91 | 1015.4 |
| 20260505020457 | 39 | 88 | 2.0 | 4.0 | 0.07 | 0.27 | 0.27 | 92 | 1015.1 |
| 20260505015954 | 39 | 134 | 2.0 | 4.0 | 0.00 | 0.26 | 0.26 | 92 | 1015.2 |
| 20260505015451 | 39 | 188 | 6.0 | 7.0 | 0.12 | 0.26 | 0.26 | 91 | 1015.6 |
| 20260505014948 | 39 | 193 | 3.0 | 7.0 | 0.05 | 0.25 | 0.25 | 90 | 1015.6 |
| 20260505014445 | 39 | 221 | 6.0 | 6.0 | 0.00 | 0.24 | 0.24 | 89 | 1015.4 |
| 20260505013942 | 39 | 206 | 2.0 | 3.0 | 0.00 | 0.24 | 0.24 | 89 | 1015.1 |
| 20260505013439 | 39 | 114 | 0.0 | 1.0 | 0.00 | 0.24 | 0.24 | 89 | 1015.5 |
| 20260505012937 | 39 | 96 | 0.0 | 0.0 | 0.00 | 0.24 | 0.24 | 90 | 1015.4 |
| 20260505012435 | 39 | 102 | 0.0 | 0.0 | 0.00 | 0.24 | 0.24 | 89 | 1015.1 |
| 20260505011931 | 39 | 123 | 0.0 | 1.0 | 0.07 | 0.24 | 0.24 | 88 | 1015.5 |
| 20260505011427 | 39 | 94 | 2.0 | 2.0 | 0.07 | 0.24 | 0.24 | 88 | 1015.2 |
| 20260505010924 | 39 | 98 | 2.0 | 4.0 | 0.00 | 0.23 | 0.23 | 89 | 1015.2 |
| 20260505010420 | 39 | 75 | 5.0 | 8.0 | 0.00 | 0.23 | 0.23 | 89 | 1015.4 |
| 20260505005916 | 40 | 114 | 2.0 | 4.0 | 0.00 | 0.23 | 0.23 | 89 | 1015.1 |
| 20260505005413 | 40 | 74 | 1.0 | 4.0 | 0.00 | 0.23 | 0.23 | 89 | 1015.4 |
| 20260505004911 | 40 | 77 | 4.0 | 6.0 | 0.00 | 0.23 | 0.23 | 89 | 1015.5 |
| 20260505004407 | 40 | 85 | 2.0 | 6.0 | 0.00 | 0.23 | 0.23 | 89 | 1015.2 |
| 20260505003904 | 41 | 77 | 2.0 | 7.0 | 0.00 | 0.23 | 0.23 | 90 | 1015.1 |
| 20260505003401 | 40 | 52 | 3.0 | 7.0 | 0.00 | 0.23 | 0.23 | 89 | 1015.4 |
| 20260505002857 | 41 | 56 | 2.0 | 7.0 | 0.00 | 0.23 | 0.23 | 87 | 1015.1 |
| 20260505002354 | 41 | 24 | 5.0 | 9.0 | 0.00 | 0.23 | 0.23 | 85 | 1015.2 |
| 20260505001853 | 42 | 3 | 6.0 | 9.0 | 0.05 | 0.23 | 0.23 | 86 | 1015.1 |
| 20260505001349 | 42 | 45 | 7.0 | 8.0 | 0.17 | 0.23 | 0.23 | 86 | 1015.2 |
| 20260505000846 | 41 | 67 | 4.0 | 7.0 | 0.35 | 0.22 | 0.22 | 85 | 1015.4 |
| 20260505000344 | 40 | 80 | 4.0 | 9.0 | 0.54 | 0.20 | 0.20 | 85 | 1015.5 |
| 20260504235840 | 38 | 158 | 1.0 | 3.0 | 0.35 | 0.15 | 0.15 | 85 | 1015.8 |
| 20260504235338 | 37 | 246 | 3.0 | 4.0 | 0.31 | 0.11 | 0.11 | 86 | 1015.9 |
| 20260504234834 | 38 | 252 | 2.0 | 4.0 | 0.24 | 0.09 | 0.09 | 84 | 1015.9 |
| 20260504234332 | 38 | 246 | 2.0 | 11.0 | 0.24 | 0.06 | 0.06 | 82 | 1016.2 |
| 20260504233828 | 41 | 187 | 6.0 | 11.0 | 0.24 | 0.04 | 0.04 | 76 | 1016.3 |
| 20260504233324 | 44 | 209 | 6.0 | 9.0 | 0.05 | 0.01 | 0.01 | 69 | 1015.9 |
| 20260504232821 | 47 | 7 | 5.0 | 8.0 | 0.00 | 0.00 | 0.00 | 57 | 1015.5 |
| 20260504232318 | 47 | 62 | 0.0 | 0.0 | 0.00 | 0.00 | 0.00 | 57 | 1015.5 |
| 20260504231815 | 47 | 91 | 0.0 | 0.0 | 0.00 | 0.00 | 0.00 | 57 | 1015.4 |
| 20260504231312 | 47 | 101 | 1.0 | 2.0 | 0.00 | 0.00 | 0.00 | 58 | 1015.4 |
| 20260504230808 | 47 | 107 | 1.0 | 3.0 | 0.00 | 0.00 | 0.00 | 58 | 1015.4 |
| 20260504230306 | 47 | 172 | 2.0 | 8.0 | 0.00 | 0.00 | 0.00 | 59 | 1015.0 |
| 20260504225804 | 46 | 138 | 4.0 | 7.0 | 0.00 | 0.00 | 0.00 | 59 | 1015.2 |
| 20260504225300 | 47 | 112 | 5.0 | 8.0 | 0.00 | 0.00 | 0.00 | 59 | 1015.4 |
| 20260504224757 | 47 | 95 | 4.0 | 7.0 | 0.00 | 0.00 | 0.00 | 59 | 1015.4 |
| 20260504224255 | 48 | 90 | 7.0 | 11.0 | 0.00 | 0.00 | 0.00 | 57 | 1015.5 |
| 20260504223751 | 51 | 107 | 5.0 | 10.0 | 0.00 | 0.00 | 0.00 | 50 | 1015.4 |
| 20260504223247 | 52 | 84 | 3.0 | 9.0 | 0.00 | 0.00 | 0.00 | 45 | 1015.4 |
| 20260504222744 | 51 | 106 | 3.0 | 6.0 | 0.00 | 0.00 | 0.00 | 46 | 1015.4 |
| 20260504222240 | 51 | 154 | 5.0 | 8.0 | 0.00 | 0.00 | 0.00 | 43 | 1015.4 |
| 20260504221738 | 52 | 108 | 4.0 | 6.0 | 0.00 | 0.00 | 0.00 | 41 | 1015.2 |
| 20260504221235 | 53 | 179 | 7.0 | 13.0 | 0.00 | 0.00 | 0.00 | 41 | 1015.5 |
| 20260504220731 | 52 | 64 | 6.0 | 9.0 | 0.00 | 0.00 | 0.00 | 44 | 1015.5 |
| 20260504220229 | 52 | 126 | 4.0 | 6.0 | 0.00 | 0.00 | 0.00 | 43 | 1015.4 |
| 20260504215726 | 51 | 25 | 1.0 | 4.0 | 0.00 | 0.00 | 0.00 | 43 | 1015.4 |
| 20260504215223 | 52 | 161 | 2.0 | 7.0 | 0.00 | 0.00 | 0.00 | 44 | 1015.6 |
| 20260504214718 | 52 | 83 | 2.0 | 6.0 | 0.00 | 0.00 | 0.00 | 43 | 1015.5 |
| 20260504214215 | 51 | 345 | 4.0 | 8.0 | 0.00 | 0.00 | 0.00 | 45 | 1015.6 |
| 20260504213712 | 53 | 18 | 4.0 | 11.0 | 0.00 | 0.00 | 0.00 | 42 | 1015.5 |
| 20260504213208 | 54 | 7 | 3.0 | 8.0 | 0.00 | 0.00 | 0.00 | 42 | 1015.9 |
| 20260504212705 | 53 | 355 | 4.0 | 7.0 | 0.00 | 0.00 | 0.00 | 44 | 1016.0 |
| 20260504212202 | 53 | 313 | 2.0 | 11.0 | 0.00 | 0.00 | 0.00 | 46 | 1015.8 |
| 20260504211659 | 53 | 243 | 4.0 | 7.0 | 0.00 | 0.00 | 0.00 | 46 | 1015.8 |
| 20260504211155 | 53 | 155 | 3.0 | 6.0 | 0.00 | 0.00 | 0.00 | 45 | 1016.0 |
| 20260504210653 | 53 | 347 | 2.0 | 9.0 | 0.00 | 0.00 | 0.00 | 44 | 1016.2 |
| 20260504210149 | 52 | 208 | 6.0 | 9.0 | 0.00 | 0.00 | 0.00 | 47 | 1016.0 |
| 20260504205647 | 53 | 203 | 6.0 | 11.0 | 0.00 | 0.00 | 0.00 | 44 | 1015.9 |
| 20260504205144 | 52 | 84 | 2.0 | 6.0 | 0.00 | 0.00 | 0.00 | 45 | 1016.0 |
| 20260504204643 | 50 | 170 | 3.0 | 6.0 | 0.00 | 0.00 | 0.00 | 46 | 1016.2 |
| 20260504204141 | 50 | 357 | 1.0 | 4.0 | 0.00 | 0.00 | 0.00 | 46 | 1016.4 |
| 20260504203639 | 49 | 114 | 3.0 | 6.0 | 0.00 | 0.00 | 0.00 | 49 | 1016.0 |
| 20260504203137 | 49 | 247 | 4.0 | 9.0 | 0.00 | 0.00 | 0.00 | 50 | 1016.4 |
| 20260504202637 | 49 | 230 | 4.0 | 10.0 | 0.00 | 0.00 | 0.00 | 51 | 1016.4 |
| 20260504202134 | 49 | 206 | 6.0 | 10.0 | 0.00 | 0.00 | 0.00 | 50 | 1016.7 |
| 20260504201631 | 49 | 219 | 7.0 | 11.0 | 0.00 | 0.00 | 0.00 | 52 | 1016.4 |
| 20260504201129 | 49 | 234 | 6.0 | 11.0 | 0.00 | 0.00 | 0.00 | 51 | 1016.6 |
| 20260504200626 | 50 | 208 | 7.0 | 10.0 | 0.00 | 0.00 | 0.00 | 51 | 1016.7 |
| 20260504200122 | 49 | 242 | 4.0 | 9.0 | 0.00 | 0.00 | 0.00 | 49 | 1016.4 |
| 20260504195618 | 48 | 145 | 5.0 | 7.0 | 0.00 | 0.00 | 0.00 | 49 | 1016.4 |
| 20260504195114 | 47 | 187 | 8.0 | 11.0 | 0.00 | 0.00 | 0.00 | 53 | 1016.7 |
| 20260504194611 | 46 | 190 | 6.0 | 9.0 | 0.00 | 0.00 | 0.00 | 54 | 1016.6 |
| 20260504194107 | 46 | 175 | 6.0 | 14.0 | 0.00 | 0.00 | 0.00 | 57 | 1016.6 |
| 20260504193603 | 46 | 184 | 10.0 | 15.0 | 0.00 | 0.00 | 0.00 | 57 | 1016.8 |
| 20260504193102 | 47 | 185 | 8.0 | 14.0 | 0.00 | 0.00 | 0.00 | 53 | 1016.8 |
| 20260504192600 | 48 | 185 | 10.0 | 14.0 | 0.00 | 0.00 | 0.00 | 55 | 1016.6 |
| 20260504192058 | 49 | 185 | 9.0 | 13.0 | 0.00 | 0.00 | 0.00 | 52 | 1016.8 |
| 20260504191556 | 48 | 204 | 9.0 | 13.0 | 0.00 | 0.00 | 0.00 | 49 | 1016.7 |
| 20260504191051 | 48 | 220 | 3.0 | 8.0 | 0.00 | 0.00 | 0.00 | 49 | 1016.4 |
| 20260504190548 | 47 | 267 | 4.0 | 7.0 | 0.00 | 0.00 | 0.00 | 49 | 1016.7 |
| 20260504190044 | 47 | 207 | 4.0 | 6.0 | 0.00 | 0.00 | 0.00 | 48 | 1016.7 |
| 20260504185541 | 47 | 221 | 5.0 | 10.0 | 0.00 | 0.00 | 0.00 | 50 | 1016.8 |
| 20260504185038 | 48 | 285 | 6.0 | 9.0 | 0.00 | 0.00 | 0.00 | 49 | 1016.9 |
| 20260504184533 | 48 | 230 | 5.0 | 7.0 | 0.00 | 0.00 | 0.00 | 49 | 1016.8 |
| 20260504184029 | 48 | 225 | 2.0 | 6.0 | 0.00 | 0.00 | 0.00 | 50 | 1016.8 |
| 20260504183526 | 49 | 266 | 7.0 | 8.0 | 0.00 | 0.00 | 0.00 | 48 | 1016.9 |
| 20260504183024 | 50 | 265 | 4.0 | 6.0 | 0.00 | 0.00 | 0.00 | 47 | 1016.8 |
| 20260504182521 | 50 | 262 | 3.0 | 7.0 | 0.00 | 0.00 | 0.00 | 47 | 1017.1 |
| 20260504182018 | 50 | 187 | 3.0 | 6.0 | 0.00 | 0.00 | 0.00 | 48 | 1017.2 |
| 20260504181515 | 49 | 293 | 4.0 | 8.0 | 0.00 | 0.00 | 0.00 | 50 | 1017.2 |
| 20260504181014 | 48 | 260 | 3.0 | 7.0 | 0.00 | 0.00 | 0.00 | 53 | 1017.1 |
| 20260504180512 | 47 | 257 | 4.0 | 9.0 | 0.00 | 0.00 | 0.00 | 53 | 1016.9 |
| 20260504180010 | 48 | 236 | 5.0 | 8.0 | 0.00 | 0.00 | 0.00 | 52 | 1017.1 |
| 20260504175507 | 48 | 150 | 2.0 | 4.0 | 0.00 | 0.00 | 0.00 | 52 | 1017.2 |
| 20260504175004 | 48 | 115 | 3.0 | 7.0 | 0.00 | 0.00 | 0.00 | 52 | 1016.9 |
| 20260504174502 | 49 | 236 | 3.0 | 13.0 | 0.00 | 0.00 | 0.00 | 52 | 1017.2 |
| 20260504173959 | 49 | 261 | 5.0 | 10.0 | 0.00 | 0.00 | 0.00 | 51 | 1017.1 |
| 20260504173455 | 50 | 59 | 2.0 | 9.0 | 0.00 | 0.00 | 0.00 | 49 | 1017.3 |
| 20260504172953 | 51 | 216 | 4.0 | 6.0 | 0.00 | 0.00 | 0.00 | 46 | 1017.1 |
| 20260504172448 | 50 | 221 | 2.0 | 4.0 | 0.00 | 0.00 | 0.00 | 46 | 1017.2 |
| 20260504171945 | 51 | 171 | 5.0 | 7.0 | 0.00 | 0.00 | 0.00 | 45 | 1017.2 |
| 20260504171443 | 52 | 228 | 3.0 | 8.0 | 0.00 | 0.00 | 0.00 | 44 | 1017.3 |
| 20260504170939 | 52 | 192 | 2.0 | 4.0 | 0.00 | 0.00 | 0.00 | 47 | 1017.3 |
| 20260504170436 | 51 | 111 | 1.0 | 3.0 | 0.00 | 0.00 | 0.00 | 47 | 1017.2 |
| 20260504160355 | 45 | 203 | 6.0 | 7.0 | 0.00 | 0.00 | 0.00 | 55 | 1017.1 |
| 20260504150820 | 47 | 206 | 5.0 | 9.0 | 0.00 | 0.00 | 0.00 | 52 | 1017.9 |
| 20260504150316 | 47 | 180 | 5.0 | 8.0 | 0.00 | 0.00 | 0.00 | 52 | 1018.0 |
| 20260504141246 | 42 | 191 | 4.0 | 7.0 | 0.00 | 0.00 | 0.00 | 60 | 1017.9 |
| 20260504140742 | 42 | 193 | 4.0 | 6.0 | 0.00 | 0.00 | 0.00 | 60 | 1017.6 |
| 20260504140238 | 42 | 210 | 4.0 | 6.0 | 0.00 | 0.00 | 0.00 | 60 | 1017.6 |
| 20260504130707 | 40 | 204 | 2.0 | 3.0 | 0.00 | 0.00 | 0.00 | 69 | 1017.7 |
| 20260504130203 | 40 | 209 | 3.0 | 3.0 | 0.00 | 0.00 | 0.00 | 69 | 1017.5 |
| 20260504120127 | 39 | 221 | 6.0 | 8.0 | 0.00 | 0.00 | 0.00 | 71 | 1017.3 |